Location: Berlin
(42.3812°N, 71.6370°W)
Time: 23:18:43
(UTC+00:00)

SJ 16-02 - Pass Details

Date: 15 November 2025
Orbit: 585 x 594 km, 75.0° (Epoch: 09 December)

Event Time Altitude Azimuth Distance (km) Brightness Sun altitude
Rises 00:09:52 0° 216° (SW) 2,823 5.2 -30.4°
Reaches altitude 10° 00:12:11 10° 224° (SW) 1,926 4.3 -30.9°
Enters shadow 00:14:38 28° 248° (WSW) 1,127 3.1 -31.3°
